| time (UTC) | temp F | wind direction | speed MPH | gust MPH | rain 1hr in | rain 24hr in | rain mn in | humidity % | barometer mb |
| 20260507053025 | 59 | 337 | 2.0 | 6.0 | 0.02 | 0.14 | 0.04 | 91 | 1009.1 |
| 20260507051522 | 59 | 293 | 1.0 | 8.0 | 0.02 | 0.13 | 0.03 | 91 | 1009.9 |
| 20260507050008 | 60 | 5 | 4.0 | 11.0 | 0.02 | 0.12 | 0.02 | 91 | 1010.6 |
| 20260507044518 | 61 | 334 | 4.0 | 12.0 | 0.03 | 0.12 | 0.02 | 90 | 1010.6 |
| 20260507043014 | 63 | 352 | 3.0 | 8.0 | 0.03 | 0.12 | 0.02 | 91 | 1009.8 |
| 20260507041523 | 64 | 27 | 0.0 | 0.0 | 0.02 | 0.11 | 0.01 | 91 | 1010.1 |
| 20260507040010 | 64 | 273 | 0.0 | 0.0 | 0.01 | 0.10 | 0.00 | 90 | 1010.0 |
| 20260507034511 | 64 | 273 | 0.0 | 0.0 | 0.00 | 0.09 | 0.09 | 89 | 1009.9 |
| 20260507033020 | 64 | 273 | 0.0 | 0.0 | 0.00 | 0.09 | 0.09 | 88 | 1009.6 |
| 20260507031525 | 64 | 273 | 0.0 | 0.0 | 0.00 | 0.09 | 0.09 | 88 | 1009.4 |
| 20260507030005 | 64 | 273 | 0.0 | 0.0 | 0.00 | 0.09 | 0.09 | 88 | 1009.8 |
| 20260507024509 | 65 | 273 | 0.0 | 0.0 | 0.00 | 0.09 | 0.09 | 88 | 1009.5 |
| 20260507023008 | 65 | 182 | 0.0 | 0.0 | 0.00 | 0.09 | 0.09 | 87 | 1009.5 |
| 20260507021508 | 65 | 182 | 0.0 | 0.0 | 0.00 | 0.09 | 0.09 | 86 | 1008.7 |
| 20260507020024 | 66 | 182 | 0.0 | 0.0 | 0.00 | 0.09 | 0.09 | 84 | 1009.0 |
| 20260507014515 | 67 | 182 | 0.0 | 1.0 | 0.00 | 0.09 | 0.09 | 84 | 1009.1 |
| 20260507013020 | 67 | 167 | 0.0 | 4.0 | 0.00 | 0.09 | 0.09 | 83 | 1009.2 |
| 20260507011518 | 67 | 137 | 2.0 | 6.0 | 0.00 | 0.09 | 0.09 | 82 | 1009.2 |
| 20260507010013 | 67 | 139 | 3.0 | 5.0 | 0.00 | 0.09 | 0.09 | 82 | 1009.2 |
| 20260507004517 | 67 | 148 | 2.0 | 8.0 | 0.00 | 0.09 | 0.09 | 81 | 1009.0 |
| 20260507003003 | 68 | 136 | 2.0 | 8.0 | 0.00 | 0.09 | 0.09 | 81 | 1008.7 |
| 20260507001523 | 68 | 126 | 3.0 | 12.0 | 0.00 | 0.09 | 0.09 | 79 | 1008.8 |
| 20260507000027 | 69 | 153 | 5.0 | 11.0 | 0.00 | 0.09 | 0.09 | 78 | 1008.8 |
| 20260506234534 | 69 | 156 | 5.0 | 11.0 | 0.00 | 0.09 | 0.09 | 79 | 1008.9 |
| 20260506233015 | 69 | 123 | 3.0 | 9.0 | 0.00 | 0.09 | 0.09 | 79 | 1008.4 |
| 20260506231528 | 69 | 145 | 4.0 | 9.0 | 0.00 | 0.09 | 0.09 | 78 | 1008.2 |
| 20260506230007 | 69 | 145 | 5.0 | 11.0 | 0.00 | 0.09 | 0.09 | 78 | 1008.6 |
| 20260506224528 | 69 | 132 | 4.0 | 13.0 | 0.00 | 0.09 | 0.09 | 77 | 1008.4 |
| 20260506223037 | 70 | 150 | 6.0 | 16.0 | 0.00 | 0.09 | 0.09 | 77 | 1008.4 |
| 20260506221511 | 70 | 150 | 6.0 | 17.0 | 0.00 | 0.09 | 0.09 | 75 | 1008.6 |
| 20260506220004 | 70 | 157 | 10.0 | 22.0 | 0.00 | 0.09 | 0.09 | 75 | 1008.4 |
| 20260506214503 | 71 | 165 | 9.0 | 18.0 | 0.00 | 0.09 | 0.09 | 74 | 1008.2 |
| 20260506213003 | 70 | 132 | 9.0 | 19.0 | 0.00 | 0.09 | 0.09 | 74 | 1008.3 |
| 20260506211508 | 70 | 153 | 12.0 | 19.0 | 0.00 | 0.09 | 0.09 | 75 | 1008.3 |
| 20260506210007 | 69 | 161 | 4.0 | 19.0 | 0.00 | 0.09 | 0.09 | 76 | 1008.3 |
| 20260506204506 | 69 | 161 | 11.0 | 16.0 | 0.00 | 0.09 | 0.09 | 76 | 1008.3 |
| 20260506203003 | 68 | 166 | 9.0 | 16.0 | 0.00 | 0.09 | 0.09 | 77 | 1008.4 |
| 20260506201503 | 68 | 132 | 11.0 | 18.0 | 0.00 | 0.09 | 0.09 | 77 | 1008.4 |
| 20260506200007 | 67 | 105 | 9.0 | 19.0 | 0.00 | 0.09 | 0.09 | 78 | 1008.5 |
| 20260506194505 | 67 | 146 | 5.0 | 15.0 | 0.00 | 0.09 | 0.09 | 80 | 1008.4 |
| 20260506193004 | 66 | 132 | 2.0 | 9.0 | 0.00 | 0.09 | 0.09 | 82 | 1008.6 |
| 20260506191504 | 66 | 130 | 6.0 | 21.0 | 0.00 | 0.09 | 0.09 | 82 | 1009.1 |
| 20260506190004 | 65 | 159 | 6.0 | 13.0 | 0.00 | 0.09 | 0.09 | 83 | 1009.2 |
| 20260506184507 | 65 | 156 | 7.0 | 12.0 | 0.00 | 0.09 | 0.09 | 83 | 1009.5 |
| 20260506183006 | 65 | 124 | 5.0 | 14.0 | 0.00 | 0.09 | 0.09 | 83 | 1009.5 |
| 20260506181503 | 65 | 164 | 7.0 | 14.0 | 0.00 | 0.09 | 0.09 | 83 | 1009.7 |
| 20260506180011 | 65 | 142 | 6.0 | 14.0 | 0.00 | 0.09 | 0.09 | 84 | 1009.7 |
| 20260506174511 | 64 | 140 | 7.0 | 14.0 | 0.00 | 0.09 | 0.09 | 84 | 1009.6 |
| 20260506173006 | 64 | 182 | 6.0 | 16.0 | 0.00 | 0.09 | 0.09 | 85 | 1009.9 |
| 20260506171507 | 64 | 124 | 9.0 | 16.0 | 0.00 | 0.09 | 0.09 | 85 | 1009.9 |
| 20260506170005 | 63 | 144 | 6.0 | 16.0 | 0.00 | 0.09 | 0.09 | 85 | 1010.0 |
| 20260506164512 | 63 | 226 | 4.0 | 12.0 | 0.00 | 0.09 | 0.09 | 86 | 1010.0 |
| 20260506163011 | 63 | 131 | 5.0 | 11.0 | 0.00 | 0.09 | 0.09 | 87 | 1010.4 |
| 20260506161512 | 62 | 125 | 4.0 | 16.0 | 0.00 | 0.09 | 0.09 | 87 | 1010.5 |
| 20260506160008 | 62 | 169 | 7.0 | 14.0 | 0.00 | 0.09 | 0.09 | 88 | 1010.7 |
| 20260506154507 | 61 | 192 | 5.0 | 15.0 | 0.00 | 0.09 | 0.09 | 88 | 1010.5 |
| 20260506153003 | 61 | 173 | 5.0 | 15.0 | 0.01 | 0.09 | 0.09 | 89 | 1010.5 |
| 20260506151505 | 61 | 153 | 5.0 | 13.0 | 0.02 | 0.09 | 0.09 | 89 | 1010.4 |
| 20260506150004 | 60 | 169 | 4.0 | 16.0 | 0.05 | 0.09 | 0.09 | 90 | 1010.4 |
| 20260506144502 | 60 | 117 | 4.0 | 9.0 | 0.06 | 0.09 | 0.09 | 89 | 1010.7 |
| 20260506143022 | 61 | 107 | 5.0 | 10.0 | 0.05 | 0.08 | 0.08 | 89 | 1011.1 |
| 20260506141502 | 61 | 153 | 5.0 | 11.0 | 0.04 | 0.07 | 0.07 | 88 | 1011.1 |
| 20260506140002 | 61 | 119 | 3.0 | 7.0 | 0.02 | 0.04 | 0.04 | 87 | 1010.9 |
| 20260506134503 | 61 | 136 | 2.0 | 6.0 | 0.02 | 0.03 | 0.03 | 86 | 1011.0 |
| 20260506133003 | 61 | 128 | 1.0 | 3.0 | 0.03 | 0.03 | 0.03 | 86 | 1010.8 |
| 20260506131503 | 61 | 141 | 2.0 | 6.0 | 0.03 | 0.03 | 0.03 | 85 | 1010.7 |
| 20260506130009 | 62 | 132 | 2.0 | 9.0 | 0.02 | 0.02 | 0.02 | 83 | 1010.8 |
| 20260506124502 | 62 | 133 | 2.0 | 7.0 | 0.01 | 0.01 | 0.01 | 81 | 1010.7 |
| 20260506123010 | 62 | 161 | 4.0 | 10.0 | 0.00 | 0.00 | 0.00 | 79 | 1010.7 |
| 20260506121510 | 62 | 130 | 3.0 | 5.0 | 0.00 | 0.00 | 0.00 | 80 | 1010.4 |
| 20260506120006 | 63 | 138 | 2.0 | 5.0 | 0.00 | 0.00 | 0.00 | 79 | 1010.6 |
| 20260506114505 | 63 | 126 | 2.0 | 10.0 | 0.00 | 0.00 | 0.00 | 76 | 1010.6 |
| 20260506113007 | 64 | 125 | 5.0 | 11.0 | 0.00 | 0.00 | 0.00 | 75 | 1010.7 |
| 20260506111511 | 64 | 146 | 6.0 | 15.0 | 0.00 | 0.00 | 0.00 | 75 | 1010.5 |
| 20260506110016 | 64 | 138 | 5.0 | 15.0 | 0.00 | 0.00 | 0.00 | 75 | 1010.3 |
| 20260506104508 | 64 | 165 | 5.0 | 13.0 | 0.00 | 0.00 | 0.00 | 74 | 1010.3 |
| 20260506103010 | 64 | 130 | 4.0 | 12.0 | 0.00 | 0.00 | 0.00 | 73 | 1010.2 |
| 20260506101506 | 64 | 132 | 3.0 | 10.0 | 0.00 | 0.00 | 0.00 | 73 | 1010.2 |
| 20260506100013 | 65 | 107 | 4.0 | 16.0 | 0.00 | 0.00 | 0.00 | 73 | 1010.2 |
| 20260506094520 | 65 | 143 | 5.0 | 9.0 | 0.00 | 0.00 | 0.00 | 73 | 1010.2 |
| 20260506093019 | 65 | 154 | 5.0 | 10.0 | 0.00 | 0.00 | 0.00 | 73 | 1010.2 |
| 20260506091515 | 65 | 132 | 5.0 | 9.0 | 0.00 | 0.00 | 0.00 | 71 | 1010.2 |
| 20260506090018 | 65 | 105 | 3.0 | 11.0 | 0.00 | 0.00 | 0.00 | 72 | 1010.3 |
| 20260506084507 | 65 | 171 | 5.0 | 10.0 | 0.00 | 0.00 | 0.00 | 71 | 1010.5 |
| 20260506083022 | 65 | 125 | 4.0 | 9.0 | 0.00 | 0.00 | 0.00 | 70 | 1010.6 |
| 20260506081529 | 65 | 110 | 3.0 | 11.0 | 0.00 | 0.00 | 0.00 | 70 | 1010.5 |
| 20260506073003 | 66 | 118 | 4.0 | 10.0 | 0.00 | 0.00 | 0.00 | 67 | 1010.7 |
| 20260506071504 | 67 | 106 | 7.0 | 16.0 | 0.00 | 0.00 | 0.00 | 67 | 1010.7 |
| 20260506061503 | 68 | 136 | 5.0 | 12.0 | 0.00 | 0.00 | 0.00 | 63 | 1011.1 |